Butler, PA

8:49 PM EDT on September 21, 2019 (GMT -0400)
Butler County-Scholter

Weather History for KBTP - August, 2019

Change the Weather History Date:

Friday, August 23, 2019

  Actual Average Record
Temperature  
Mean Temperature 64 °F -  
Max Temperature 71 °F 76 °F 93 °F (1968)
Min Temperature 57 °F 57 °F 41 °F (1973)
Degree Days  
Heating Degree Days 1    
Growing Degree Days 14 (Base 50)    
Moisture  
Dew Point 55 °F    
Average Humidity 73    
Maximum Humidity 87    
Minimum Humidity 53    
Precipitation  
Precipitation 0.00 in - - ()
Sea Level Pressure  
Sea Level Pressure 30.12 in    
Wind  
Wind Speed 4 mph (North)    
Max Wind Speed 8 mph    
Max Gust Speed -    
Visibility 10 miles    
Events      
Averages and records for this station are not official NWS values.
T = Trace of Precipitation, MM = Missing Value Source: NWS Daily Summary

Daily Weather History Graph

Daily Weather History Graph

Search for Another Location

Airport or City:

Astronomy

Aug. 23, 2019 Rise Set
Actual Time 6:37 AM EDT 8:06 PM EDT
Civil Twilight 6:08 AM EDT 8:35 PM EDT
Nautical Twilight 5:34 AM EDT 9:09 PM EDT
Astronomical Twilight 4:57 AM EDT 9:46 PM EDT
Moon No Moon Rise 2:15 PM EDT (8/23)
Length of Visible Light 14h 26m
Length of Day
13h 28m
Waning Gibbous, 50% of the Moon is Illuminated
Aug 23
Waning Gibbous
Aug 30
New
Sep 5
First Quarter
Sep 14
Full
Sep 21
Last Quarter

Hourly Weather History & Observations

Time (EDT) Temp. Dew Point Humidity Pressure Visibility Wind Dir Wind Speed Gust Speed Precip Events Conditions
12:56 AM 64.0 °F 57.9 °F 80% 30.06 in 9.0 mi Variable 3.5 mph - N/A   Overcast
1:56 AM 63.0 °F 55.9 °F 78% 30.06 in 10.0 mi NNE 5.8 mph - N/A   Overcast
2:56 AM 62.1 °F 55.0 °F 78% 30.06 in 8.0 mi Calm Calm - N/A   Overcast
3:56 AM 62.1 °F 55.0 °F 78% 30.06 in 10.0 mi North 3.5 mph - N/A   Overcast
4:56 AM 61.0 °F 55.0 °F 81% 30.07 in 10.0 mi Calm Calm - N/A   Overcast
5:56 AM 59.0 °F 54.0 °F 83% 30.09 in 10.0 mi North 4.6 mph - N/A   Partly Cloudy
6:56 AM 57.9 °F 54.0 °F 87% 30.11 in 10.0 mi Calm Calm - N/A   Clear
7:56 AM 59.0 °F 55.0 °F 87% 30.12 in 10.0 mi NNE 4.6 mph - N/A   Clear
8:56 AM 62.1 °F 55.0 °F 78% 30.12 in 10.0 mi Variable 4.6 mph - N/A   Clear
9:56 AM 63.0 °F 57.0 °F 81% 30.13 in 10.0 mi NNW 5.8 mph - N/A   Clear
10:56 AM 64.9 °F 55.9 °F 73% 30.13 in 10.0 mi Variable 5.8 mph - N/A   Clear
11:56 AM 66.0 °F 55.0 °F 68% 30.14 in 10.0 mi North 3.5 mph - N/A   Mostly Cloudy
12:56 PM 68.0 °F 54.0 °F 61% 30.13 in 10.0 mi NNW 6.9 mph - N/A   Scattered Clouds
1:56 PM 69.1 °F 55.0 °F 61% 30.13 in 6.0 mi Variable 5.8 mph - N/A   Haze
2:56 PM 69.1 °F 53.1 °F 57% 30.13 in 10.0 mi Variable 6.9 mph - N/A   Partly Cloudy
3:56 PM 70.0 °F 52.0 °F 53% 30.13 in 10.0 mi NNE 8.1 mph - N/A   Clear
4:56 PM 71.1 °F 55.0 °F 57% 30.12 in 10.0 mi North 4.6 mph - N/A   Scattered Clouds
5:56 PM 69.1 °F 55.0 °F 61% 30.13 in 10.0 mi Variable 3.5 mph - N/A   Partly Cloudy
6:56 PM 68.0 °F 54.0 °F 61% 30.13 in 10.0 mi NNW 4.6 mph - N/A   Partly Cloudy
7:56 PM 64.9 °F 55.9 °F 73% 30.14 in 10.0 mi Calm Calm - N/A   Mostly Cloudy
8:56 PM 64.0 °F 55.0 °F 73% 30.15 in 10.0 mi Variable 3.5 mph - N/A   Mostly Cloudy
9:56 PM 62.1 °F 55.0 °F 78% 30.17 in 10.0 mi Calm Calm - N/A   Clear
10:56 PM 61.0 °F 54.0 °F 78% 30.19 in 10.0 mi North 3.5 mph - N/A   Scattered Clouds
11:56 PM 59.0 °F 54.0 °F 83% 30.20 in 10.0 mi NNE 5.8 mph - N/A   Overcast